Race Results for
Modesto Road Race
Modesto, CA
(Event Information)
View By:
Road Race on 05/16/2010

Note: Ranking points are NOT upgrade points. An explanation of ranking points can be found here.


Men - Pro/Cat 1/2

 Place Points NameCity, StateTime USAC #BibTeam
1281.55Vincent Owens   Fresno, CA00:00:00.00 242560  195 Yahoo Cycling Team
2304.76Jeremiah Holdway   Sparks, NV00:00:00.00 55281  187 Taleo Racing
3327.97John Devere   Madera, CA00:00:00.00 297594  189 Sierra Pacific Racing
4351.18Kevin Klein   Menlo Park, CA00:00:00.00 47388  194 Yahoo Cycling Team
5374.39Raffi Jilizian   Danville, CA00:00:00.00 187667  199 FORM Fitness
6397.61Josh LaGrange   Bend, OR00:00:00.00 201330  198 Form Fitness
7420.82James Hardy   Oakland, CA00:00:00.00 80116  191 Kaiser Permanente/ Team Oaklan
8444.03Clifton Smoot   San Francisco, CA00:00:00.00 219426  192 Breakawaybikes.com
9467.24Josh Rennie   Reno, NV00:00:00.00 251736  196 TEAM CLIF BAR Cycling
10490.45Kalani Hines   San Francisco, CA00:00:00.00 219316  185 Metromint Cycling
DNPRainier Schaefer   Sanfrancisco, CA00:00:00.00 304249  186 Unattached
DNPLuciano Berry   Sunol, CA00:00:00.00 192658  188 SJBC
DNPSean Smith   Oakland, CA00:00:00.00 204018  190 Squadra Ovest Cycling
DNPSassan Golafshan   Palo Alto, CA00:00:00.00 169945  193 Form Fitness
DNPThomas Novikoff (Cat2)   San Jose, CA00:00:00.00 141331  197 Webcor/Alto Velo

Men - Cat 1/2/3 - Master - 35-99

 Place Points NameCity, StateTime USAC #BibTeam
1338.05David Avila   Emerald Hills, CA00:00:00.00 55625  322 One Team Racing
2350.04Scott Derdenger   Benicia, CA00:00:00.00 55123  312 Echelon Velo
3362.04Bill Beers   Danville, CA00:00:00.00 236371  315 Wells Fargo Racing Team
4374.04Lucas Paz   Richmond, CA00:00:00.00 150305  313 East Bay Velo Club
5386.04Mitch Boehs   Livingston, CA00:00:00.00 237309  318 Fun Sport Bikes Cycling Team
6398.03David Loogman   Modesto, CA00:00:00.00 71865  323 Echelon Velo
7410.03Denin Sahovic   Sunnyvale, CA00:00:00.00 271126  306 Los Gatos
8422.03John Trefethen   Danville, CA00:00:00.00 212376  320 HDR Racing p/b Lombardi Sports
9434.03Robert Winder   Lafayette, CA00:00:00.00 220285  311 HDR Racing p/b Lombardi Sports
10446.03Kent Lourenzo   Discovery Bay, CA00:00:00.00 72054  314 Contra Costa Cycling Club
11458.02Tony Homes   Danville, CA00:00:00.00 210572  302 Wells Fargo Racing Team
12470.02Gregory Galuppo   Oakdale, CA00:00:00.00 75500  316 InfoVista Cycling Team
13482.02Kaley Parkinson   Danville, CA00:00:00.00 195339  317 Taleo Racing
14494.02Andrew Robertson   Fresno, CA00:00:00.00 169555  305 Rubber Soul/CSC Racing Team
15506.02Steve Offerman   Sacramento, CA00:00:00.00 81992  304 Rio Strada Racing
16518.01Jeff Horner (1 - Cat3)   Walnut Creek, CA00:00:00.00 219308  309 Wells Fargo Racing Team
17530.01Jason Williams   Chico, CA00:00:00.00 190700  307 Wells Fargo Racing Team
18542.01David Del Rosso   Dublin, CA00:00:00.00 187432  319 HDR Racing p/b Lombardi Sports
19554.01Craig Chaney   Turlock, CA00:00:00.00 87111  310 Fun Sport Bikes Cycling Team
20566.00Nick Fitton (2 - Cat3)   Livermore, CA00:00:00.00 254446  301 Wells Fargo Racing Team
21UNKNOWN RIDER   00:00:00.00  325 -------
22590.00James Porter   Palo Alto, CA00:00:00.00 238708  321 Webcor/Alto Velo
DNSJosh Felder   Menlo Park, CA00:00:00.00 292894  300 Form Fitness
DNPJohn Schaupp    Watsonville, CA00:00:00.00 48510  308 Team Bicycle Trip/Symantec

Men - Cat 1/2/3/4 - Master - 45-99

 Place Points NameCity, StateTime USAC #BibTeam
1290.15Hunter Ziesing   Bel Tiburon, CA00:00:00.00 39478  648 Echelon Gran Fondo/ZteaM
2300.14Peter Allen   Fair Oaks, CA00:00:00.00 46996  600 SAFEWAY/Bicycles Plus/PureRed
3310.14Vincent Gee   Sacramento, CA00:00:00.00 13001  652 Echelon Velo
4320.13Rodney Spradlin   El Dorado Hills, CA00:00:00.00 122266  641 FCI Commercial Capital
5330.13Patrick McLaughlin   Lafayette, CA00:00:00.00 227027  620 Wells Fargo Racing Team
6340.12Chris Courtney   Oakdale, CA00:00:00.00 47303  606 SJBC
7350.12Scott Cole (1 - Cat2)   Oakland, CA00:00:00.00 207165  604 Morgan Stanley Smith Barney/Sp
8360.12Cale Reeder   Cameron Park, CA00:00:00.00 272237  634 Echelon Gran Fondo/Zteam
9370.11Mark Robertson   Oakland, CA00:00:00.00 237380  635 Taleo Racing
10380.11Joe McCrummen   Brentwood, CA00:00:00.00 23350  619 Taleo Racing
11390.10Dan Sovereign   Sacramento, CA00:00:00.00 106455  640 Kinetic Cycles/gbi
12400.10Michael Camarena   Lindsay, CA00:00:00.00 47386  602 Yokohl Ranch/Sierra Bicycle We
13410.09Joseph Foster   Alamo, CA00:00:00.00 286823  609 Wells Fargo Racing Team
14420.08Thomas Coulter   Rocklin, CA00:00:00.00 74102  605 Mogan Stanley Smith Barney Spe
15430.08Joe Platin   Santa Cruz, CA00:00:00.00 256834  630 Team Bicycle Trip / Symantec
16440.07Robert Quandt-Collier (1 - Cat3)   Oakland, CA00:00:00.00 180155  632 Metromint Cycling
17450.07David Metzinger   Livermore, CA00:00:00.00 230083  622 Minimax
18460.06Brian McCleary (2 - Cat2)   Sacramento, CA00:00:00.00 109066  651 FCI Commercial Capital
19470.06Spencer Kenner   Davis, CA00:00:00.00 86651  649 FCI Commercial Capital
20480.06Robert Napieralski   Springville, CA00:00:00.00 271499  626 Yokohl Ranch/Sierra Bicycle We
21490.05Mark Petrucci   Santa Rosa, CA00:00:00.00 57790  629 unattached
22500.05Osvaldo Tomatis   Elk Grove, CA00:00:00.00 220373  642 sport and spine pt
23510.04John Hawkins   Los Osos, CA00:00:00.00 45436  613 SLO Nexus
24520.03Karl Schilling   San Jose, CA00:00:00.00 47556  639 Los Gatos
25530.03Greg Bollella   Redwood City, CA00:00:00.00 235126  650 Webcor/Alto Velo
26540.02Peter Meyer   Mount Aukum, CA00:00:00.00 219925  623 Bicycle Planet
27550.02Scott Wielt   San Rafael, CA00:00:00.00 38154  654 FCI Commercial Capital
28560.01Michael Boals   Berkeley, CA00:00:00.00 221818  601 Metromint Cycling
29570.01Chris Menicou   Fremont, CA00:00:00.00 314296  621 Team Fremont FFBC
30580.00Kevin Torbett   Walnut Creek, CA00:00:00.00 58379  643 Wells Fargo Racing Team
31590.00Rocco Hollaway   Modesto, CA00:00:00.00 195261  616 VSRT/Livermore Cyclery
DNSChris Cerruti   Watsonville, CA00:00:00.00 198811  603 Cal Gaint Cycling
DNSScott Duncan   Healdsburg, CA00:00:00.00 125894  607 Sho-Air/Sonance/Velosport
DNSGreg Elliott (Cat4)   Fremont, CA00:00:00.00 271538  608 Minimax
DNSDouglas Gonda   Truckee, CA00:00:00.00 13594  610 Truckee Bicycle Team
DNSJohn Hansen   Danville, CA00:00:00.00 113380  612 wells fargo racing team
DNSPhillip Heiman   Penngrove, CA00:00:00.00 204100  614 Colavita Racing-Norcal
DNSScott Hellam   Fresno, CA00:00:00.00 287510  615 Rubber Soul/CSC
DNSJonathan Laine   Truckee, CA00:00:00.00 256153  617 SAFEWAY/Bicycles Plus/PureRed
DNSMichael Lynch   Ripon, CA00:00:00.00 180322  618 Team WM
DNSDavid Montgomery   Olympic Valley, CA00:00:00.00 302935  624 Truckee Bicycle Team
DNSTracy Muegge   Gold River, CA00:00:00.00 51637  625 Team Bicycle Plus/Sierra Nevad
DNSAlan Nielson   Dublin, CA00:00:00.00 236183  627 Wells Fargo Racing Team
DNSSteven Olechny   Saratoga , CA00:00:00.00 142113  628 Taleo Racing
DNSAndrew Posselt   Mill Valley, CA00:00:00.00 216827  631 Squadra Ovest Cycling
DNSJess Raphael   Napa, CA00:00:00.00 221460  633 SAFEWAY/Bicycles Plus/PureRed
DNSThomas Romano   San Jose, CA00:00:00.00 190390  636 Webcor/Alto Velo
DNSSteven Romjue   Mill Valley, CA00:00:00.00 69415  637 Olympic Club
DNSRich Rozzi   Hollywood Ca00:00:00.00 230031  638 Colavita Racing-Norcal
DNSRussell Voss   Tracy, CA00:00:00.00 258026  645 Minimax
DNSRusk Whipps   Petaluma, CA00:00:00.00 266460  646 Sierra Express
DNSMatt Yaden   Danville, CA00:00:00.00 238250  647 Wells Fargo Racing Team
DNPGary Griffin   Boulder Creek, CA00:00:00.00 254036  611 Bicycle Trip/Symantec
DNPDavid Tu   Redwood City, CA00:00:00.00 36009  644 Truckee Bicycle Team
DNPDavid Anthony (Cat3)   Fremont, CA00:00:00.00 195564  653 Metromint Cycling

Men - Cat 3

 Place Points NameCity, StateTime USAC #BibTeam
1393.97Michael Ricks   Stockton, CA00:00:00.00 250319  115 Chico Corsa
2406.10Mike Gonzales   San Mateo, CA00:00:00.00 205006  107 Ikon Cycles Race Team
3418.23Anthony Justman   San Francisco, CA00:00:00.00 60882  125 Fusion Sport USA
4430.36John Cheetham   Pleasanton, CA00:00:00.00 202515  124 Metromint Cycling
5442.49Robbie Franscioni   Salinas, CA00:00:00.00 298805  105 California Giant Cycling
6454.62Ryan Gadow   Dublin, CA00:00:00.00 271417  106 SJBC
7466.75Murat Ozgur   Los Altos, CA00:00:00.00 41335  112 Squadra Ovest Cycling
8478.87Stone Beck   Fresno, CA00:00:00.00 219237  120 Stevens Bicycle Racing
9491.00Jason Arinno   Elk Grove, CA00:00:00.00 260928  101 Ikon Cycles Race Team
10503.13Nole Studley   Oakland, CA00:00:00.00 251301  126 Team Roaring Mouse
11515.26Jason James   Oakland, CA00:00:00.00 119309  123 Squadra Ovest Cycling
12527.39Griffin Stone   Clovis, CA00:00:00.00 234161  121 Stevens Bicycle Racing
13539.52Kyle Ashton   Sebastopol, CA00:00:00.00 264499  102 Village Peddler
DNSDavid Anthony   Fremont, CA00:00:00.00 195564  100 Metromint Cycling
DNSSantiago Bolon   San Jose, CA00:00:00.00 195384  103 Christian Cycling - Hammer Nut
DNSBenjamin Dodge   San Jose, CA00:00:00.00 178595  104 Sugar CRM
DNSRyan Price   Santa Rosa, CA00:00:00.00 267121  113 NA
DNPRobert Orcutt   Scotts Valley, CA00:00:00.00 269340  111 Webcor/Alto Velo
DNPPablo Serna   Redwood City, CA00:00:00.00 48826  116 Form Fitness
DNPRey Surla   Fremont, CA00:00:00.00 91423  117 Team Fremont
DNPPaul Taylor   Brentwood, CA00:00:00.00 207281  118 Metromint Cycling
DNPSamuel Wilson   Palo Alto, CA00:00:00.00 248077  119 Metromint Cycling
DNPAndrew Lanier Jr   Gilroy, CA00:00:00.00 226086  122 Team Specialized Racing Junior

Men - Cat 4

 Place Points NameCity, StateTime USAC #BibTeam
1467.40J Lemons   Hanford, CA00:00:00.00 274625  429 Central Sierra Cyclists
2479.66Matt Abbott   Santa Rosa, CA00:00:00.00 260224  400 2WheelRacing
3491.92Michael Painter   Chico Ca00:00:00.00 289184  443 Chico Corsa Cycling Club
4504.18Jeff Linder   Sunnyvale, CA00:00:00.00 307653  432 
5516.44Raoul MartinBlouin   Walnut Creek, CA00:00:00.00 303631  435 Taleo Racing
6528.70David Doll   Merced, CA00:00:00.00 281768  415 Stanislaus/Merlock Velo
7540.96Givargis Betoshana   Ripon, CA00:00:00.00 55276  409 Fun Sport Bikes Cycling Team
8553.22Shane Calkins   Gold River, CA00:00:00.00 254786  413 Team Bicycles Plus/Sierra Neva
9565.48Jason Oxford   Fresno, CA00:00:00.00 277338  456 Vapor Racing - vaporracing.com
10577.74Scott Hellam   Fresno, CA00:00:00.00 287510  424 Rubber Soul/CSC
11590.00Chaz Turmon   Sanger00:00:00.00 291490  451 Rubber Soul/CSC Racing Team
DNSPhil Alne   San Jose, CA00:00:00.00 236191  402 SJBC
DNSByron Anson   West Sacramento, CA00:00:00.00 304735  404 Davis Bike Club
DNSMike Ashton   Oakland, CA00:00:00.00 302651  406 Dolce Vita Cycling
DNSPhilip Blay   Folsom, CA00:00:00.00 274756  410 Folsom Bike
DNSEamonn Gormley   Sunnyvale, CA00:00:00.00 282501  421 Los Gatos
DNSEduardo Guerrero   Corvallis, OR00:00:00.00 270937  422 Thirsty Bear Cycling
DNSGregg Hollingsworth   Tempe, AZ00:00:00.00 196424  425 Christian Cycling-Hammer Nutri
DNSAndrew LaBarre   Alameda, CA00:00:00.00 271445  427 
DNSTrevor Larsen   Moraga, CA00:00:00.00 256917  428 Tieni Duro
DNSJordan McElroy   Truckee, CA00:00:00.00 296295  436 TRUCKEE BICYCLE TEAM
DNSKenneth Norton   San Carlos, CA00:00:00.00 215389  441 Peninsula Velo/Pomodoro
DNSAmit Paz   Danville, CA00:00:00.00 203861  445 Taleo Racing
DNSAaron Phillips   Brentwood, CA00:00:00.00 273263  446 Williams Cycling
DNSDevinderjit Singh   Yuba City, CA00:00:00.00 296818  448 DAVIS BIKE CLUB
DNSBrad Wilson   Sacramento, CA00:00:00.00 273321  454 Team Mad Cat
DNSJarrod Wyrick   Granite Bay, CA00:00:00.00 109262  455 Folsom Bike
DNPSaeed Abedi   Mountain View, CA00:00:00.00 172270  401 Webcor/Alto Velo
DNPAndrew Alonis   Palo Alto, CA00:00:00.00 292239  403 Peninsula Velo/Pomodoro
DNPBenjamin Barry   Arcata, CA00:00:00.00 289212  407 Team Becher+
DNPRick Berry   Kingsburg, CA00:00:00.00 271131  408 Rubber Soul/CSC Racing Team
DNPAllen Brumm   Foster City, CA00:00:00.00 195431  412 Webcor/Alto Velo
DNPMatthew Cox   Walnut Creek, CA00:00:00.00 302521  414 
DNPNathanael Dunn   Fair Oaks, CA00:00:00.00 290357  416 Rio Strada Racing
DNPRobbie Farrens   Stockton, CA00:00:00.00 289433  417 DJs Produce - Rocket Sports-Tr
DNPSugoon Fucharoen   Stanford, CA00:00:00.00 286481  418 
DNPWyatt Garcia   Atwater, CA00:00:00.00 287655  419 Stanislaus Merlock/Velo
DNPJeff Gledhill   Clovis, CA00:00:00.00 282233  420 Rubber Soul/ CSC Racing
DNPJason Hardi   Citrus Heights, CA00:00:00.00 287921  423 Vapor Racing
DNPCurtis Hong   Dublin, CA00:00:00.00 305875  426 Attached
DNPReese Levine   Orinda, CA00:00:00.00 263998  431 Tieni Duro
DNPBrent Majors   Clovis, CA00:00:00.00 286527  433 CSC Rubber Soul
DNPHenry Mar   San Bruno, CA00:00:00.00 217433  434 Team Roaring Mouse
DNPsalifu mohammed   Sananselmo, CA00:00:00.00 304756  437 paradgm cycles
DNPScott Moore   Santa Cruz, CA00:00:00.00 256976  438 JRVS/Casey Auto
DNPHenry Nelson   Oakland, CA00:00:00.00 289117  439 Tieni Duro
DNPPaul Ngo   San Jose, CA00:00:00.00 275571  440 Team Roaring Mouse
DNPRory Osbrink   Pleasanton, CA00:00:00.00 218676  442 Hawk Relay Cycling Team
DNPJeffrey Palileo   American Canyon, CA00:00:00.00 224717  444 Squadra Ovest Cycling
DNPPatrick Piccolo   Oakland , CA00:00:00.00 263815  447 BECHER+
DNPDaniel Stevens   Cayucos Ca00:00:00.00 304754  449 
DNPGreg Tripoli   Hanford, CA00:00:00.00 281420  450 Rubber Soul/CSC Racing Team
DNPJeremy Tuttle   Clovis, CA00:00:00.00 303019  452 Central Valley Cycling
DNPJacob Dodge   Dinuba, CA00:00:00.00 287011  457 Unattached
DNPJorge Rotea   Sunnyvale, CA00:00:00.00 224270  458 Team Fremont/FFBC powered by C
DNPRichard NIELSEN   00:00:00.00  459 
DNPMonica Harris   Oakdale, CA00:00:00.00 286874  460 InfoVista Cycling Team

Men - Cat 4 - Master A - 35-99

 Place Points NameCity, StateTime USAC #BibTeam
1488.66Raymond Rodriguez   Santa Rosa, CA00:00:00.00 93483  853 2wheel cycling
2490.24Kashy Ghazzagh   Santa Rosa, CA00:00:00.00 295719  818 Team Norcal Bike Sport
3491.81Chris Hernikl   Pleasant Hill, CA00:00:00.00 304027  823 Taleo Racing
4493.39stephen starr   Rohnert Park, CA00:00:00.00 305188  864 Team NorCal Bike Sport
5494.96Michael Kopp   San Francisco, CA00:00:00.00 286893  827 Taleo Racing
6496.54Mark Wallis   Danville, CA00:00:00.00 304606  871 Taleo Racing
7498.11Andrew Adelman   Portola Valley, CA00:00:00.00 300501  800 CoreTechs Cycling Team
8499.69Richard Nichols   Danville, CA00:00:00.00 286421  840 Tri Valley Velo
9501.26Jason Cruser   Walnutcreek, CA00:00:00.00 287526  808 Wells Fargo Racing Team
10502.84Star Stevenson   Santa Rosa, CA00:00:00.00 236074  866 2WHEELCYCLING
11504.41Brian Pantiga   Folsom, CA00:00:00.00 61633  844 Bicycle Planet
12505.99Rick Lawton   Pleasanton, CA00:00:00.00 141309  830 Wells Fargo Racing Team
13507.56Gary Land   Santa Rosa, CA00:00:00.00 181093  828 Team BEER
14509.14David Douglas   Pleasanton, CA00:00:00.00 195436  810 Christian Cycling - Hammer Nut
15510.71Mike Nissen   Livermore, CA00:00:00.00 296024  841 Taleo Racing
16512.29Chris Callahan   Alamo, CA00:00:00.00 242571  806 Wells Fargo Racing Team
17513.87Shawn Overholtzer   Modesto, CA00:00:00.00 229420  843 Fun Sport Bikes Cycling Team
18515.44John Fallon   Denver, CO00:00:00.00 278385  814 Wells Fargo Racing Team
19517.02Andreas Schulten   Cameron Park, CA00:00:00.00 248096  859 Bicycle Planet
20518.59Joseph Smith   Modesto, CA00:00:00.00 118308  863 Fun Sport Bikes Cycling Team
21520.17Bob Ehardt   Orangevale, CA00:00:00.00 286992  812 Bicycle Planet
22521.74Sascha Messner   Fremont, CA00:00:00.00 280562  837 Taleo Racing
23523.32John Gerling   Modesto, CA00:00:00.00 218917  817 Fun Sport Bikes Cycling Team
24524.89Keith Purser   Folsom, CA00:00:00.00 197080  847 Bicycle Planet
25526.47Gregg Lehman   Vacaville, CA00:00:00.00 250959  831 Precision Bicycles / Team Prec
26528.04Chris King   San Francisco, CA00:00:00.00 245892  826 Dolce Vita Cycling
27529.62Anthony Low   Lafayette, CA00:00:00.00 265991  833 Taleo Racing
28531.19Romeo Uriarte   Orinda, CA00:00:00.00 262503  869 Berkeley Bicycle Club
29532.77Warren Lane   Lafayette, CA00:00:00.00 227316  829 Taleo Racing
30534.34James Williams   Danville, CA00:00:00.00 38350  873 Wells Fargo Racing Team
31535.92Timothy Roberts   Dixon, CA00:00:00.00 30120  851 Davis Bike Club Race Team
32537.50Gregg Roh   Sacramento, CA00:00:00.00 58416  854 Sac Golden Wheelmen
33539.07Francis Goldsberry   Sacramento, CA00:00:00.00 132927  819 Sacramento Golden Wheelmen
34540.65Chris Scheetz   Los Altos, CA00:00:00.00 216916  858 CoreTechs Cycling Team
35542.22Ron Hansen   Lafayette, CA00:00:00.00 298332  820 Wells Fargo Racing
36543.80Frederic Lequient   San Francisco, CA00:00:00.00 199591  832 Taleo Racing
37545.37Kevin ODonnell   Greenbrae, CA00:00:00.00 242028  842 Taleo Racing
38546.95Keith Reed   Pleasanton, CA00:00:00.00 304119  849 Tri Valley Velo
39548.52Jay Hahn   Oakdale, CA00:00:00.00 255850  874 Fun Sport Bikes Cycling Team
40550.10Brad Crow   Danville, CA00:00:00.00 271159  807 Wells Fargo Racing Team
41551.67Robert Montague   Aptos, CA00:00:00.00 276007  838 Team Bicycle Trip / Symantec
42553.25Richard Asturias   Pleasanton, CA00:00:00.00 236210  801 Tri Valley Velo
43554.82Jeff Watson   Elk Grove, CA00:00:00.00 293136  872 Team Bicycles Plus/Sierra Neva
44556.40Michele Brocato   Lafayette, CA00:00:00.00 177046  804 Tri Valley Velo
45557.97Frank Lunceford Sr   El Dorado Hills, CA00:00:00.00 273343  834 Bicycle Planet
46559.55Scott Price   Lafayette, CA00:00:00.00 271249  846 Taleo Racing
47561.13John Pauley   Redwood City, CA00:00:00.00 27452  845 CoreTechs Cycling Team
48562.70Dave Dunkley   Clayton, CA00:00:00.00 195560  811 Wells Fargo Racing Team
49564.28Greg McCormac   Danville, CA00:00:00.00 171823  835 Wells Fargo Racing Team
50565.85Darron Sturgeon   Reno, NV00:00:00.00 286787  867 Reno Wheelmen
51567.43Rob Robinson   Castro Valley, CA00:00:00.00 271386  852 Taleo Racing
52569.00Don Brennen   Pleasanton, CA00:00:00.00 286701  803 Tri Valley Velo
53570.58Allen Jackson   Sonora, CA00:00:00.00 260263  825 Wells Fargo Racing Team
54572.15Steve Rosefield   Pleasanton, CA00:00:00.00 298343  855 Tri Valley Velo
DNSChris Becker   Orinda, CA00:00:00.00 287692  802 Taleo Racing
DNSTimothy Burgess   Windsor, CA00:00:00.00 275383  805 Team NorCal Bikesport
DNSTom Cutter   Carmichael, CA00:00:00.00 285993  809 Sacramento Golden Wheelmen
DNSRobert Equi   Elk Grove, CA00:00:00.00 275297  813 Sacramento Golden Wheelmen
DNSNelson Frink   Sutter, CA00:00:00.00 268821  815 Davis Bike Club Race Team
DNSVictor Furr   Pleasanton, CA00:00:00.00 96225  816 Minimax
DNSScott Harris   Homosassa, FL00:00:00.00 287103  821 Tri Valley Velo
DNSPaul Henderson   Livermore, CA00:00:00.00 254491  822 MINIMAX
DNSTom McElroy   Truckee, CA00:00:00.00 296294  836 TRUCKEE BICYCLE TEAM
DNSNorrie Quinn   Brentwood, CA00:00:00.00 271110  848 Tri Valley Velo
DNSMyron Reyes   San Ramon, CA00:00:00.00 141386  850 Tri Valley Velo
DNSRhys Rowland   Davis, CA00:00:00.00 216813  856 Davis Bike Club
DNSTravis Selk   Concord, CA00:00:00.00 242087  860 Tri Valley Velo
DNSMichael Simos   Redwood City, CA00:00:00.00 271296  861 Los Gatos
DNSNathan Trueblood   Pleasanton, CA00:00:00.00 195397  868 Tri Valley Velo
DNSJim Volsansky   San Ramon, CA00:00:00.00 203442  870 Tri Valley Velo
DNPHendrik (Erik) Hofman   Danville, CA00:00:00.00 285592  824 Tri Valley Velo
DNPMark Nichols   Alamo, CA00:00:00.00 83106  839 Wells Fargo Racing Team
DNPMichael Saba   Oakland, CA00:00:00.00 285459  857 Taleo Racing
DNPMark Skrivanich   Walnut Creek, CA00:00:00.00 256112  862 Taleo Racing
DNPMark Stemmy   Cameron Park, CA00:00:00.00 130535  865 Team Bicycle Planet

Men - Cat 4 - Master B - 35-99

 Place Points NameCity, StateTime USAC #BibTeam
1482.28Sean Tompkins   Morganhill, CA00:00:00.00 300546  44 SJBC
2491.26Mike Brunetti   Escalon, CA00:00:00.00 273437  NA
3500.23Mike Ashton   Oakland, CA00:00:00.00 302651  Dolce Vita Cycling
4509.21David Haslemann   Folsom, CA00:00:00.00 277664  18 Rio Strada Racing
5518.19David Bryant   Gardnerville, NV00:00:00.00 303973  Body Concepts
6527.16Robert Kopitzke   Folsom, CA00:00:00.00 96397  23 Body Concepts
7536.14David Brunetti   Modesto, CA00:00:00.00 5236  52 Unattached
8545.12AdamVanMinh Martin   Antioch, CA00:00:00.00 57185  26 Tri Valley Velo
9554.09Ken Doyle   Santa Barbara, CA00:00:00.00 9958  12 Team Chicken Ranch
10UNKNOWN RIDER   00:00:00.00  ??? -------
11572.05Mitch Karno   Santa Barbara, CA00:00:00.00 205902  22 Team Chicken Ranch
12581.02Harold DeGraff   San Carlos, CA00:00:00.00 283825  11 Peninsula Velo/Pomodoro
13590.00Daniel Nathanson   Millbrae, CA00:00:00.00 303766  32 Peninsula Velo / Pomodoro
DNSPhil Alne   San Jose, CA00:00:00.00 236191  SJBC
DNSReed Azevedo   Manteca, CA00:00:00.00 281782  Williams Cycling
DNSJames Cotta   Lodi, CA00:00:00.00 282175  Williams Cycling
DNSFrancisco Gatdula   Lodi, CA00:00:00.00 111613  15 LUZVIMIN RACING TEAM
DNSJeff Gledhill   Clovis, CA00:00:00.00 282233  16 Rubber Soul/ CSC Racing
DNSEric Hess   Windsor, CA00:00:00.00 16032  19 
DNSDavid Jurist   San Diego, CA00:00:00.00 276397  20 Team Chicken Ranch
DNSJoe Miller   Benicia, CA00:00:00.00 269479  29 Taleo Racing
DNSJonathan Orban   Burlingame, CA00:00:00.00 240114  33 Third Pillar
DNSDonald Parsons   Pleasanton, CA00:00:00.00 254434  35 Metromint Cycling
DNSBrian Priddin   El Dorado, CA00:00:00.00 178247  37 
DNSJim Sallee   San Francisco, CA00:00:00.00 88987  39 Zeitgeist Racing
DNSDevinderjit Singh   Yuba City, CA00:00:00.00 296818  40 DAVIS BIKE CLUB
DNPAndrejs Adamovics   Stockton, CA00:00:00.00 65843  Los Gatos
DNPDavid Amador   Concord, CA00:00:00.00 169561  Wells Fargo Racing Team
DNPJoshua Ballesteros   Brentwood, CA00:00:00.00 262160  Third Pillar
DNPRichard Coyle   Granite Bay, CA00:00:00.00 277158  10 Rio Strada Racing
DNPJim Elam   Mustang, OK00:00:00.00 273123  13 Luvzumin
DNPJohn Gallagher   San Ramon, CA00:00:00.00 304284  14 Taleo Racing
DNPGlenn Hammerson   Manteca, CA00:00:00.00 208644  17 VSRT/Livermore Cyclery
DNPMichael Kalin   Lafayette, CA00:00:00.00 266414  21 Taleo Racing
DNPJoshua Lopez   Alamo, CA00:00:00.00 305647  24 Los Gatos
DNPRonald Magcauas   Vallejo, CA00:00:00.00 269823  25 Luzvimin
DNPWilliam McBride   Santa Barbara, CA00:00:00.00 287300  27 
DNPMatthew McNelley   Alamo, CA00:00:00.00 242212  28 Taleo Racing
DNPChristopher Mink   Richmond, CA00:00:00.00 232894  30 Taleo Racing
DNPVictor Mirzayan   Fresno, CA00:00:00.00 262853  31 Sierra Pacific Racing
DNPEdward Price   Aptos, CA00:00:00.00 84614  36 Team Bicycle Trip
DNPLudin Ruano   Livermore, CA00:00:00.00 260831  38 VSRT/Livermore Cyclery
DNPAMIN TAMARIZ   Belmont, CA00:00:00.00 277016  41 Webcor/Alto Velo
DNPGilbert Tarin   Knightsen, CA00:00:00.00 252241  42 Taleo Racing
DNPRoss Tomita   Sacramento, CA00:00:00.00 257583  43 VSRT/Livermore Cyclery
DNProzel tupaz   Bay Point, CA00:00:00.00 269119  45 LuzViMin
DNPDon Williams   Byron, CA00:00:00.00 209758  46 VSRT / Livermore Cyclery
DNPEric Zagala   Pleasant Hill, CA00:00:00.00 276373  47 Luzvimin Racing
DNPRyan Lenhardt   San Ramon, CA00:00:00.00 20890  48 Taleo Racing
DNPAaron Phillips   Brentwood, CA00:00:00.00 273263  49 Williams Cycling
DNPJack Arney   Lincoln, CA00:00:00.00 301427  50 Folsom Bike
DNPChris Udarbe   Folsom, CA00:00:00.00 292859  51 Folsom Bike
DNPBenjamin Weekes   Oakland, CA00:00:00.00 109383  53 Major Motion Cycling Club

Men - Cat 5

 Place Points NameCity, StateTime USAC #BibTeam
1525.94cody greer   Sanger, CA00:00:00.00 309590  508 
2527.94Matthew Johnston   Merced, CA00:00:00.00 304638  511 Team Mason Thomas
3529.94nick baird   Sanger, CA00:00:00.00 309596  503 
4531.95Gerrit Wesseling   Truckee, CA00:00:00.00 310084  529 Rio Strada Racing
5533.95Ryan Malm   Sacramento, CA00:00:00.00 296229  515 Davis Bike Club
6535.95Theodore Vidnovic   Livermore, CA00:00:00.00 303703  527 VSRT
7537.95Mar Villaflor   Oakland, CA00:00:00.00 314686  528 
8539.95Gordon Lau   Livermore, CA00:00:00.00 309989  513 Valley Spokesmen Racing Team
9541.96Byron Rhodes   Bakersfield, CA00:00:00.00 308492  520 
10543.96Ron Abidog   Sanjose, CA00:00:00.00 285617  500 SJBC
11545.96Michael LaFrenais   Roseville, CA00:00:00.00 227848  512 Rio Strada Racing
12Chris CAGUNGUN   00:00:00.00  505 
13549.96Aaron McDonald   Santacruz, CA00:00:00.00 293586  516 Bicycle Trip / Symantec
14551.96Michael Ahern   San Jose, CA00:00:00.00 281780  501 Los Gatos
15553.97Bradley Thomas   El Macero, CA00:00:00.00 300596  526 Team Mason Thomas
16UNKNOWN RIDER   00:00:00.00  ??? -------
17557.97Kenneth Schneider   San Ramon, CA00:00:00.00 293383  538 Unattached
18559.97Matt Schaupp   Watsonville, CA00:00:00.00 311816  533 Team Bicycle Trip/Symantec
19561.97Rey Bernal   Tracy, CA00:00:00.00 314564  504 Unattached
20563.98Brian Schmidt   San Francisco, CA00:00:00.00 311259  521 
21565.98Christopher Michalski   Brentwood, CA00:00:00.00 128601  517 Brentwood Bike Co.
22567.98John Anner   Albany, CA00:00:00.00 303115  502 Berkeley Bicycle Club
23569.98Thomas Preisler   Los Gatos, CA00:00:00.00 294002  519 Los Gatos
24571.98Joseph Campanelli   San Francisco, CA00:00:00.00 312476  506 
25573.99Doug Cook   Exeter, CA00:00:00.00 7642  536 Unattached
26Nick SHOCKEY   00:00:00.00  534 Team City
27577.99Bill Honeycutt   Discovery Bay, CA00:00:00.00 304906  535 Unattached
28579.99Gonzalo Carrillo   Fremont, CA00:00:00.00 308032  507 Team Fremont/FFBC powered by C
29581.99Dennis Pellissier   Merced, CA00:00:00.00 307827  518 Team Mason Thomas
30583.99Jacob Westlie   El Sobrante, CA00:00:00.00 316196  530 
31586.00Roy Taylor   Castro Valley, CA00:00:00.00 304312  525 Team Fremont/FFBC pb Chipotle
32588.00Joseph Storm   Alamo00:00:00.00 304801  524 
33590.00Shun Yao   Davis, CA00:00:00.00 287028  531 Team Mason Thomas
DNSJeff Hartley   Santa Rosa, CA00:00:00.00 310531  509 
DNSkevin jeffers   Santa Rosa, CA00:00:00.00 307307  510 team norcal bike sport
DNSTravis Lee   Citrus Heights, CA00:00:00.00 299720  514 
DNSJosh Sharp   Elverta, CA00:00:00.00 296453  522 
DNPGregg SHORES   00:00:00.00  523 
DNPBenjamin Orven ZAMORA   00:00:00.00  532 team tropa
DNPDan Foehner   Pleasanton, CA00:00:00.00 272283  537 Forward Motion Race Club

Men - Cat 5 - Master - 35-99

 Place Points NameCity, StateTime USAC #BibTeam
1490.99Scot McLean   Sananselmo, CA00:00:00.00 304846  730 ThirstyBear Cycling
2514.30Bob Loux   Modesto, CA00:00:00.00 287104  729 Fun Sports Bikes Cycling Team
3Peter GEMMELL   00:00:00.00  717 
4560.91Roger Steuble   Jackson, CA00:00:00.00 305013  743 Team Revolutions
5584.22Michael Beyers   Danville, CA00:00:00.00 304408  703 Tri_Valley Velo
DNSBruce CARROLL   00:00:00.00  707 
DNSDaniel Castellani   Turlock, CA00:00:00.00 306441  708 Fun Sport Bikes Cycling Team
DNSDavid Dalton   Danville, CA00:00:00.00 287122  712 Tri Valley Velo
DNSJohn Depew   El Dorado Hills, CA00:00:00.00 304092  714 Body Concepts
DNSJim Dosenbach   Riverbank, CA00:00:00.00 303726  715 Fun Sport Bikes Cycling Team
DNSKurt Freytag   Oakland, CA00:00:00.00 303914  716 Evergreen Power
DNSPatrick Gordon   Vacaville, CA00:00:00.00 290498  720 Team Precision
DNSGlenn Imke   Bakersfield, CA00:00:00.00 280879  723 Action Sports
DNSdavid jevans   Menlo Park, CA00:00:00.00 304022  724 
DNSJonathan Orban   Burlingame, CA00:00:00.00 240114  732 Third Pillar
DNSMax Rink   Rumsey, CA00:00:00.00 304699  735 Davis Bike Club Race Team
DNSSteven Schorer   Granite Bay, CA00:00:00.00 290547  736 Rio Strada Racing
DNSSTUART SCHULTZ   Modesto, CA00:00:00.00 303832  737 Fun Sport Bikes Cycling Team
DNSDavid Setton   Danville, CA00:00:00.00 303681  739 Berkeley Bike Club (BBC)
DNSMichael Stoll   Lafayette, CA00:00:00.00 303910  744 Taleo Racing
DNSJim THOMPSON   00:00:00.00  745 
DNSAlex Vasquez   Cool, CA00:00:00.00 303808  746 Victory Velo
DNSBrian White   Windsor, CA00:00:00.00 307402  747 NorCal Bike Sport
DNSRobert Woodward   Madera, CA00:00:00.00 303875  748 Central Valley Cycling
DNSJohn KEKUEWA   00:00:00.00   
DNSJayce Bell   Pleasant Hill, CA00:00:00.00 310153   Minimax
DNPTony DZOAN   00:00:00.00  700 Fremont/FFBC
DNPRobert Bell   Turlock, CA00:00:00.00 302930  701 Fun Sport Bikes Cycling Team
DNPPaul Berger   Modesto, CA00:00:00.00 297140  702 Fun Sport Bikes Cycling Team
DNPIgor Bulatov   Fresno, CA00:00:00.00 304326  704 CSC/Rubber Soul
DNPJonathan Carlos   Cameron Park, CA00:00:00.00 305050  705 Fun Sport Bikes Cycling Team
DNPNelson CARRILLO   00:00:00.00  706 VSRT/Livermore Cyclery
DNPMichael Cosgrove   Fremont, CA00:00:00.00 303893  709 Team Fremont/FFBC powered by C
DNPJody Cummings   Fresno, CA00:00:00.00 298802  710 Rubber Soul / CSC Race Team
DNPWes Dale   San Ramon, CA00:00:00.00 286704  711 Taleo Racing
DNPChris De Deaux   Turlock, CA00:00:00.00 184911  713 Fun Sport Bikes Cycling Team
DNPSpence Gerber   Folsom, CA00:00:00.00 221812  718 Bicycle Planet
DNPJim Goodwin   Modesto, CA00:00:00.00 303986  719 Fun Sport Bikes Cycling Team
DNPJon Hallam   Portola Valley, CA00:00:00.00 303821  721 CoreTechs
DNPChris Hawley   Turlock, CA00:00:00.00 253470  722 CoreTechs
DNPTodd Riley   Clovis, CA00:00:00.00 303961  725 Rubber Soul/CSC Racing Team
DNPFrank Kilgore   Sacramento, CA00:00:00.00 304772  726 Sacramento Golden Wheelmen
DNPHeath Langle   Sacramento, CA00:00:00.00 89327  727 Sacramento Golden Wheelmen
DNPDaniel Leitner   Riverbank, CA00:00:00.00 289092  728 Fun Sport Bikes Cycling Team
DNPRobert O'Brien   San Francisco, CA00:00:00.00 216347  731 CAF
DNPScott PETTETT   00:00:00.00  733 
DNPBrian Prahl   Sacaramento, CA00:00:00.00 305088  734 
DNPMark SERKANIC   00:00:00.00  738 
DNPMark Smallwood   Modesto, CA00:00:00.00 304897  740 Fun Sports Bikes Cycling Team
DNPScott Sommerfeld   Manteca, CA00:00:00.00 288687  741 Fun Sport Bikes Cycling Team
DNPRusty Stapp   Pleasanton, CA00:00:00.00 287480  742 Tri Valley Velo
DNPJames Morando   Tiburon, CA00:00:00.00 306317  749 Unattached

Report missing or incorrect license numbers

Volkswagen
CUORESpyShimanoSierra NevadaBonk BreakerUSACDF
UCI USA Cycling is the official governing body for all disciplines of competitive cycling in the United States. The 501c3, membership-based organization aims both to achieve sustained success in international cycling competition and to grow competitive cycling in America while delivering an exceptional customer experience.
View Children's Online Privacy Protection Policy
US Olympic Committee